Location: ??????????
(54.8537°N, 38.8755°E)
Time: 23:28:58
(UTC+00:00)

Tiros 1 - Pass Details

Date: 17 September 2024
Orbit: 623 x 654 km, 48.4° (Epoch: 09 October)

Event Time Altitude Azimuth Distance (km) Brightness Sun altitude
Rises 15:40:11 0° 263° (W) 2,904 12.6 -1.5°
Reaches altitude 10° 15:42:37 10° 254° (WSW) 2,000 11.1 -1.9°
Maximum altitude 15:46:48 35° 189° (S) 1,018 8.2 -2.5°
Drops below altitude 10° 15:51:00 10° 124° (SE) 2,012 9.1 -3.1°
Enters shadow 15:52:48 - 117° (ESE) 2,674 9.7 -3.3°
Sets 15:53:28 0° 115° (ESE) 2,925 - -3.4°
